Total_Precipitation_Accumulation
1.80 1.90 1.86 1.84 1.77 1.91 1.96 1.93 1.94 1.94 1.94 2.04 2.16 2.33 2.39 2.48 2.61 2.75 2.54 2.68 2.82 2.98 2.85 2.86 2.92 3.03 2.98 2.87 2.96 3.05 3.27 3.57 3.44 2.84 2.69 2.65 2.51 2.24 2.21 2.11 2.08 2.21 2.25
1.72 1.86 1.93 2.09 2.02 1.95 1.94 1.99 2.07 2.18 2.27 2.23 2.30 2.38 2.28 2.37 2.62 2.66 2.60 2.67 2.72 2.75 2.93 3.22 3.14 3.22 3.15 2.97 3.09 3.02 3.16 3.57 3.43 3.03 2.95 2.96 2.89 2.62 2.47 2.26 2.02 2.03 2.19
1.84 1.97 2.12 2.20 2.09 2.00 2.13 2.22 2.25 2.41 2.58 2.62 2.62 2.48 2.41 2.41 2.50 2.59 2.69 2.72 2.71 2.76 2.91 3.00 3.06 3.33 3.19 3.10 3.00 2.96 3.09 3.33 3.50 3.16 3.02 3.24 3.08 2.77 2.64 2.33 2.12 2.23 2.01
1.99 2.28 2.38 2.37 2.25 2.19 2.31 2.41 2.43 2.50 2.65 2.79 2.76 2.68 2.61 2.50 2.35 2.34 2.42 2.52 2.66 2.79 2.84 2.78 2.88 3.13 3.22 3.24 3.00 3.02 3.20 3.33 3.41 3.29 3.12 3.24 3.26 3.15 2.99 2.70 2.59 2.44 2.25
2.17 2.35 2.38 2.47 2.47 2.50 2.61 2.63 2.54 2.57 2.61 2.79 2.83 2.86 2.82 2.60 2.30 2.39 2.56 2.54 2.72 2.71 2.61 2.52 2.52 2.79 3.04 3.12 2.83 2.91 3.13 3.15 3.14 3.15 3.12 3.20 3.25 3.40 3.22 2.90 2.67 2.54 2.29
2.37 2.65 2.71 2.76 2.74 2.80 2.93 2.97 2.87 2.86 2.99 3.02 2.88 2.80 2.72 2.31 2.49 2.55 2.56 2.59 2.74 2.73 2.64 2.54 2.42 2.37 2.39 2.58 2.70 2.85 3.01 3.00 3.00 3.17 3.30 3.35 3.35 3.43 3.44 3.21 2.90 2.67 2.42
2.48 2.73 2.91 2.99 3.01 3.07 3.13 3.14 3.08 3.18 3.37 3.33 3.15 2.94 2.76 2.70 2.70 2.48 2.45 2.32 2.37 2.46 2.56 2.53 2.20 1.98 2.12 2.06 2.30 2.47 2.54 2.64 2.75 2.99 3.14 3.18 3.31 3.47 3.62 3.33 3.13 2.91 2.61
2.79 2.91 3.01 3.05 3.08 3.14 3.21 3.11 3.15 3.30 3.33 3.32 3.20 3.04 2.87 2.77 2.72 2.44 2.43 2.19 2.15 2.19 2.28 2.33 2.26 2.12 2.09 2.23 2.24 2.13 2.03 2.09 2.31 2.37 2.49 2.76 3.00 3.25 3.50 3.41 3.36 3.04 2.67
2.96 2.93 2.90 2.99 3.11 3.16 3.17 3.17 3.23 3.29 3.18 3.02 2.91 2.87 2.83 2.87 2.95 2.65 2.47 2.17 2.16 2.11 2.11 2.13 2.15 2.06 2.27 2.28 2.17 2.09 2.05 2.03 2.13 2.26 2.27 2.42 2.69 2.85 3.04 3.19 3.18 3.05 2.73
2.87 2.93 2.94 3.05 3.13 3.16 3.25 3.31 3.26 3.22 3.14 3.03 2.83 2.80 2.81 2.77 2.89 2.56 2.43 2.17 2.14 2.09 2.12 2.12 2.16 2.08 2.16 2.06 1.95 2.02 1.98 1.98 2.10 2.11 2.11 2.13 2.20 2.53 2.92 2.76 2.82 2.92 2.67
2.74 2.95 3.18 3.32 3.35 3.35 3.37 3.25 3.18 3.10 3.11 3.05 2.89 2.79 2.77 2.71 2.79 2.55 2.36 2.05 2.12 2.31 2.28 2.20 2.20 2.21 1.91 1.84 1.80 1.80 1.85 1.94 2.07 1.95 1.84 1.86 1.98 2.16 2.41 2.50 2.50 2.51 2.47
2.48 2.70 2.88 3.07 3.20 3.19 3.23 3.14 3.19 3.14 3.02 2.88 2.77 2.63 2.58 2.61 2.53 2.45 2.27 2.07 2.12 2.23 2.32 2.36 2.36 2.25 1.87 1.71 1.58 1.55 1.67 1.68 1.71 1.79 1.76 1.74 1.80 1.92 2.10 2.26 2.35 2.43 2.36
2.27 2.47 2.69 2.88 3.16 3.29 3.32 3.25 3.14 3.05 2.85 2.63 2.49 2.34 2.33 2.40 2.42 2.31 2.16 2.11 2.16 2.14 2.16 2.27 2.12 2.00 1.79 1.55 1.50 1.52 1.56 1.50 1.58 1.72 1.76 1.72 1.71 1.80 2.08 2.43 2.61 2.72 2.64
2.26 2.37 2.54 2.70 2.90 3.16 3.23 3.15 2.98 2.72 2.55 2.48 2.40 2.35 2.38 2.44 2.33 2.18 2.00 1.92 1.97 1.97 2.00 2.07 2.04 1.98 1.89 1.73 1.64 1.55 1.47 1.52 1.61 1.66 1.78 1.91 2.04 2.13 2.24 2.37 2.55 2.64 2.66
2.14 2.17 2.21 2.40 2.61 2.80 2.82 2.73 2.59 2.45 2.51 2.53 2.46 2.42 2.33 2.26 2.34 2.30 2.06 1.91 1.88 1.94 1.96 1.96 1.98 2.08 2.10 2.04 1.95 1.84 1.79 1.80 1.80 1.78 1.90 2.03 2.05 2.08 2.11 2.26 2.43 2.49 2.38
2.19 2.14 2.06 2.01 2.11 2.40 2.67 2.73 2.64 2.42 2.43 2.32 2.21 2.16 2.10 2.05 2.11 2.10 1.98 1.89 1.96 2.07 1.93 1.92 2.07 2.13 2.17 2.17 2.16 2.00 1.88 1.77 1.74 1.82 1.87 1.94 2.01 2.04 2.07 2.21 2.38 2.39 2.23
2.21 2.16 2.04 1.92 1.96 2.13 2.45 2.74 2.82 2.60 2.34 2.19 1.95 1.77 1.71 1.70 1.73 1.79 1.85 1.82 1.81 1.81 1.67 1.77 1.97 2.02 2.04 2.06 2.06 1.95 1.88 1.83 1.84 1.93 2.02 2.07 2.11 2.10 2.10 2.15 2.28 2.34 2.26
2.14 2.14 2.01 1.89 1.95 2.08 2.30 2.59 2.77 2.72 2.49 2.19 1.88 1.66 1.58 1.53 1.55 1.62 1.69 1.62 1.53 1.46 1.39 1.53 1.70 1.85 1.96 2.06 2.12 2.11 2.03 1.99 1.97 1.94 2.03 2.11 2.21 2.27 2.23 2.18 2.25 2.34 2.32
2.08 2.09 2.05 1.97 1.97 1.98 2.17 2.46 2.64 2.65 2.51 2.30 1.98 1.69 1.56 1.47 1.47 1.59 1.56 1.39 1.35 1.34 1.33 1.36 1.46 1.69 1.93 2.08 2.18 2.26 2.26 2.19 2.04 2.01 2.06 2.14 2.21 2.32 2.30 2.22 2.25 2.41 2.40
1.88 1.92 1.81 1.76 1.81 1.78 1.84 2.00 2.27 2.44 2.39 2.32 2.08 1.65 1.40 1.33 1.33 1.53 1.60 1.60 1.54 1.40 1.33 1.37 1.46 1.61 1.81 2.03 2.12 2.10 2.13 2.08 2.04 2.03 2.02 2.10 2.19 2.26 2.26 2.24 2.27 2.37 2.33
1.63 1.67 1.63 1.47 1.57 1.65 1.72 1.86 2.12 2.34 2.30 2.20 2.03 1.72 1.53 1.41 1.44 1.48 1.58 1.67 1.68 1.60 1.51 1.45 1.45 1.51 1.66 1.82 1.90 1.95 1.99 1.97 1.94 1.98 2.00 2.02 2.10 2.20 2.29 2.30 2.25 2.30 2.33
1.37 1.39 1.38 1.32 1.41 1.51 1.61 1.85 2.11 2.24 2.15 2.04 1.94 1.75 1.66 1.57 1.58 1.62 1.62 1.60 1.55 1.47 1.44 1.47 1.49 1.55 1.63 1.67 1.75 1.88 1.96 1.95 1.91 1.90 1.93 1.96 2.02 2.06 2.17 2.25 2.20 2.23 2.27
1.25 1.26 1.28 1.27 1.32 1.44 1.58 1.75 1.90 1.95 1.92 1.90 1.76 1.61 1.58 1.61 1.59 1.60 1.62 1.57 1.48 1.41 1.41 1.49 1.54 1.56 1.60 1.60 1.62 1.72 1.79 1.80 1.82 1.83 1.92 2.01 2.04 2.09 2.19 2.26 2.27 2.35 2.36
1.33 1.38 1.42 1.45 1.50 1.56 1.64 1.73 1.77 1.74 1.68 1.65 1.61 1.61 1.63 1.64 1.60 1.59 1.58 1.57 1.56 1.55 1.52 1.48 1.46 1.45 1.49 1.54 1.55 1.55 1.61 1.64 1.62 1.66 1.73 1.85 1.95 2.00 2.08 2.16 2.20 2.23 2.31
1.27 1.39 1.45 1.52 1.57 1.63 1.71 1.73 1.73 1.68 1.57 1.52 1.52 1.55 1.55 1.52 1.60 1.61 1.57 1.55 1.53 1.48 1.36 1.33 1.33 1.28 1.26 1.28 1.27 1.30 1.46 1.47 1.39 1.41 1.48 1.64 1.73 1.78 1.85 1.95 2.04 2.10 2.17
1.15 1.25 1.37 1.41 1.46 1.55 1.66 1.72 1.68 1.63 1.56 1.52 1.53 1.56 1.53 1.50 1.50 1.51 1.49 1.47 1.46 1.43 1.40 1.37 1.26 1.22 1.22 1.23 1.25 1.32 1.34 1.23 1.19 1.23 1.23 1.33 1.51 1.60 1.70 1.81 1.88 2.03 2.10